Regional Weather Roundup
Issued by NWS

Home | Current Version | Previous Version | Graphics & Text | Print | Product List | Glossary On
Versions: 1 2 3 4 5 6 7 8 9 10 11 12 13 14 15 16 17 18 19 20 21 22 23 24 25 26 27 28 29 30 31 32 33 34 35 36 37 38 39 40 41 42 43 44 45 46 47 48 49 50
000
ASUS43 KTOP 252059
RWRKS

WEATHER ROUNDUP FOR KANSAS
NATIONAL WEATHER SERVICE GOODLAND KS
300 PM CST TUE NOV 25 2014

NOTE:  "FAIR" INDICATES FEW OR NO CLOUDS BELOW 12,000 FEET WITH NO
SIGNIFICANT WEATHER AND/OR OBSTRUCTIONS TO VISIBILITY.

KSZ001>006-013>018-027>032-041>047-252200-
NORTHWEST KANSAS

CITY           SKY/WX    TMP DP  RH WIND       PRES   REMARKS
GOODLAND       PTSUNNY   50  14  23 NW20G25   29.88F
HAYS           CLOUDY    50  18  27 SW17G23   29.97F
HILL CITY      CLOUDY    50  15  24 SW15G26   29.93F
RUSSELL        CLOUDY    49  19  30 SW18      29.96F
$$

KSZ061>065-074>080-084>089-252200-
SOUTHWEST KANSAS

CITY           SKY/WX    TMP DP  RH WIND       PRES   REMARKS
DODGE CITY     PTSUNNY   50  12  21 SW23      29.99F
ELKHART          N/A     52  16  24 SW15        N/A
GARDEN CITY    PTSUNNY  N/A N/A N/A SW20G28   29.94F
GREAT BEND     CLOUDY    50  18  27 SW15      30.00F
LIBERAL        PTSUNNY   52  18  25 SW20G26   30.00F
$$

KSZ066>073-081>083-090>101-252200-
SOUTHEAST KANSAS

CITY           SKY/WX    TMP DP  RH WIND       PRES   REMARKS
CHANUTE        SUNNY     47  19  33 SW9       30.14F
COFFEYVILLE    SUNNY     48  20  32 VRB7      30.16F
HUTCHINSON     MOSUNNY   50  23  34 SW14      30.05F
MEDICINE LODGE   N/A     50  22  33 SW10      30.06F
NEWTON         SUNNY     48  21  34 SW14G22   30.08F
PARSONS        SUNNY     47  20  34 SW6       30.16F
WICHITA INTL   MOSUNNY   51  22  31 S13G21    30.08F
WICHITA JABRA  SUNNY     49  21  33 SW15      30.08F
WICHITA MCCONL SUNNY     49  19  30 S13       30.09F
WINFIELD       SUNNY     50  25  37 SW13      30.12F
$$

KSZ007>012-019>026-033>040-048>060-102>105-252200-
NORTHEAST KANSAS

CITY           SKY/WX    TMP DP  RH WIND       PRES   REMARKS
CONCORDIA      MOSUNNY   49  21  33 SW15      29.98F
EMPORIA        SUNNY     48  21  34 SW15      30.08F
LAWRENCE       SUNNY     44  18  35 SW8       30.11F
MANHATTAN      SUNNY     50  24  36 SW16      30.05F
OLATHE IND     SUNNY     42  17  36 SW8       30.12F
OLATHE EXE     SUNNY     42  15  33 SW8       30.11F
SALINA         MOSUNNY   52  21  29 SW15      30.03F
TOPEKA BILLARD SUNNY     48  22  35 SW13      30.09F
TOPEKA FORBES  SUNNY     47  21  35 S12       30.08F
$$


USA.gov is the U.S. government's official web portal to all federal, state and local government web resources and services.